This is the latest recevied weather packets stored in our database for station/object WB4ZUT. If no packets are shown the sender has not sent any weather packets the latest 10 day(s).
| Time | Temp. | Humidity | Pressure | Rain* | Wind** | Luminosity | Snow |
|---|---|---|---|---|---|---|---|
| 1778112069 | 15° C | 61% | 1014.5 hPa | 0 mm | - | 43 W/m² | - |
| 1778111766 | 15.56° C | 60% | 1014.3 hPa | 0 mm | - | 55 W/m² | - |
| 1778111466 | 15.56° C | 59% | 1014.2 hPa | 0 mm | - | 75 W/m² | - |
| 1778111164 | 16.11° C | 59% | 1014.6 hPa | 0 mm | - | 74 W/m² | - |
| 1778110861 | 16.11° C | 57% | 1014.3 hPa | 0 mm | - | 97 W/m² | - |
| 1778110558 | 16.11° C | 58% | 1014.5 hPa | 0 mm | - | 142 W/m² | - |
| 1778110255 | 16.11° C | 59% | 1014.5 hPa | 0 mm | - | 122 W/m² | - |
| 1778109951 | 16.11° C | 57% | 1014.6 hPa | 0 mm | - | 138 W/m² | - |
| 1778109647 | 16.11° C | 58% | 1014.4 hPa | 0 mm | - | 164 W/m² | - |
| 1778109344 | 15.56° C | 60% | 1014.4 hPa | 0 mm | - | 115 W/m² | - |
| 1778109042 | 16.11° C | 60% | 1014.7 hPa | 0 mm | - | 110 W/m² | - |
| 1778108738 | 16.67° C | 60% | 1014.6 hPa | 0 mm | - | 206 W/m² | - |
| 1778108436 | 16.67° C | 60% | 1014.4 hPa | 0 mm | - | 216 W/m² | - |
| 1778108132 | 16.67° C | 61% | 1014.5 hPa | 0 mm | - | 229 W/m² | - |
| 1778107829 | 16.11° C | 62% | 1014.5 hPa | 0 mm | - | 287 W/m² | - |
| 1778107526 | 16.11° C | 61% | 1014.7 hPa | 0 mm | - | 217 W/m² | - |
| 1778107223 | 16.11° C | 61% | 1014.9 hPa | 0 mm | - | 225 W/m² | - |
| 1778106918 | 16.11° C | 59% | 1014.8 hPa | 0 mm | - | 272 W/m² | - |
| 1778106615 | 16.67° C | 59% | 1014.8 hPa | 0 mm | - | 238 W/m² | - |
| 1778106312 | 16.67° C | 58% | 1014.8 hPa | 0 mm | - | 250 W/m² | - |
| 1778106008 | 16.11° C | 58% | 1014.7 hPa | 0 mm | - | 394 W/m² | - |
| 1778105706 | 16.11° C | 58% | 1014.8 hPa | 0 mm | - | 211 W/m² | - |
| 1778105403 | 15.56° C | 58% | 1014.8 hPa | 0 mm | - | 184 W/m² | - |
| 1778105098 | 16.11° C | 58% | 1014.7 hPa | 0 mm | - | 180 W/m² | - |
| 1778104795 | 16.11° C | 59% | 1014.5 hPa | 0 mm | - | 203 W/m² | - |
* Rain latest hour (hover to see other rain measurements)
** Current wind speed in m/s (hover to see current wind gust speed)